一网星座-0457星 (ONEWEB-0457 )

导读 | 星芒AI

ONEWEB-0457 是 OneWeb 卫星通信公司发射的低轨通信卫星之一,属于其全球宽带互联网星座计划的一部分。该卫星运行在约 1200 公里的近地轨道,旨在为全球用户提供高速、低延迟的互联网服务,特别是在偏远和地面网络覆盖不足的地区。ONEWEB-0457 采用先进通信技术,支持 Ku 和 Ka 频段,具备高容量和高可靠性,助力实现全球数字连接。

基本信息
目录编号:
51647
目录名称:
ONEWEB-0457
国际标识:
2022-012AB
轨道中心:
EARTH
卫星名称:
一网星座-0457星
卫星全名:
一网星座-0457星 (ONEWEB-0457 )
卫星状态:
在轨 (已飞行1405 天)
发射日期:
2022-02-10 UTC
国别 :
英国 (GB)
星等 :
--
轨道信息
数据来源 国际轨道数据 AOE轨道数据
星历时间 2025-12-15T13:19:55+0800
20小时前
查看轨道信息
2025-12-09T11:00:00+0800
6天前
查看轨道信息
半长轴 7599.854km 7599.853km
偏心率 0.0001414 0.0001195
轨道倾角 87.881° 87.880°
近地点辐角 117.630° 110.543°
升交点赤经 72.951° 74.167°
平近点角 242.497° 303.536°
近地点 1220.644km 1220.809km
远地点 1222.794km 1222.627km
周期 109.892分钟 109.892分钟
每日圈数 13.10373 13.103733
详细信息
平衡模式:
三轴稳定
覆盖范围:
全球
运营商:
一网卫星公司
运营商所在国:
英国
制造商(研发单位):
一网卫星公司
制造商所在国:
英国
使用方式:
暂无
卫星简介
OneWeb卫星网络由648颗重约125公斤的微型卫星组成,运行在1200公里的轨道上。 每颗卫星都能够提供至少每秒8千兆位的吞吐量,以使用其高吞吐量的Ku频段有效载荷为家庭和移动平台提供互联网接入。该卫星仍在工作。
2D轨道图
3D轨道图
轨道高度分析图
轨道倾角分析图
轨道综合分析图
查看轨道综合分析图